Terminal Aerodrome Forecast
Issued by NWS

Home | Current Version | Previous Version | Graphics & Text | Print | Product List | Glossary Off
Versions: 1 2 3 4 5 6 7 8 9 10 11 12 13 14 15 16 17 18 19 20 21 22 23 24 25 26 27 28 29 30 31

000
FTUS43 KDDC 290535
TAFHYS
TAF
KHYS 290535Z 2906/3006 18016G22KT P6SM SKC WS015/21055KT
     FM291500 35022G32KT P6SM BKN120
     FM300100 05010KT P6SM SKC=

USA.gov is the U.S. government's official web portal to all federal, state and local government web resources and services.